London, United Kingdom

8:23 PM GMT on December 02, 2016 (GMT +0000)
London

Weather History for 03772 - April, 2014

Change the Weather History Date:

Sunday, April 27, 2014

  Actual Average Record
Temperature  
Mean Temperature 52 °F -  
Max Temperature 58 °F - - ()
Min Temperature 47 °F - - ()
Degree Days  
Heating Degree Days 12    
Growing Degree Days 2 (Base 50)    
Moisture  
Dew Point 45 °F    
Average Humidity 74    
Maximum Humidity 94    
Minimum Humidity 50    
Precipitation  
Precipitation 0.03 in - - ()
Sea Level Pressure  
Sea Level Pressure 29.62 in    
Wind  
Wind Speed 10 mph ()    
Max Wind Speed 15 mph    
Max Gust Speed -    
Visibility 7.7 miles    
Events Rain    
T = Trace of Precipitation, MM = Missing Value Source: Averaged Metar Reports

Daily Weather History Graph

Daily Weather History Graph

Search for Another Location

Airport or City:

Trip Planner

Search our weather history database for the weather conditions in past years. The results will help you decide how hot, cold, wet, or windy it might be!

Date:

Astronomy

Apr. 27, 2014 Rise Set
Actual Time 5:41 AM BST 8:18 PM BST
Civil Twilight 5:04 AM BST 8:55 PM BST
Nautical Twilight 4:16 AM BST 9:43 PM BST
Astronomical Twilight 3:19 AM BST 10:41 PM BST
Moon 4:49 AM BST (4/27) 6:24 PM BST (4/27)
Length of Visible Light 15h 51m
Length of Day
14h 36m
Waning Crescent, 4% of the Moon is Illuminated
Apr 27
Waning Crescent
Apr 29
New
May 7
First Quarter
May 14
Full
May 21
Last Quarter

Hourly Weather History & Observations

Time (BST) Temp. Dew Point Humidity Pressure Visibility Wind Dir Wind Speed Gust Speed Precip Events Conditions
12:00 AM 49 °F 40 °F 63% 29.62 in 25 mi ESE 11.5 mph - -  
12:20 AM 48.2 °F 41.0 °F 76% 29.59 in 6.2 mi ESE 11.5 mph - N/A   Scattered Clouds
12:50 AM 48.2 °F 42.8 °F 82% 29.59 in 6.2 mi ESE 10.4 mph - N/A   Scattered Clouds
1:00 AM 49 °F 41 °F 65% 29.61 in 25 mi ESE 10.4 mph - -   Scattered Clouds
1:20 AM 48.2 °F 42.8 °F 82% 29.59 in 6.2 mi ESE 9.2 mph - N/A   Scattered Clouds
1:50 AM 50.0 °F 42.8 °F 76% 29.59 in 6.2 mi East 8.1 mph - N/A   Unknown
2:00 AM 48 °F 42 °F 73% 29.59 in 25 mi East 8.1 mph - -   Partly Cloudy
2:20 AM 50.0 °F 42.8 °F 76% 29.56 in 6.2 mi ESE 10.4 mph - N/A   Unknown
2:50 AM 48.2 °F 42.8 °F 82% 29.56 in - East 10.4 mph - N/A   Clear
3:00 AM 48 °F 42 °F 75% 29.58 in 22 mi East 10.4 mph - -   Partly Cloudy
3:20 AM 48.2 °F 42.8 °F 82% 29.56 in 6.2 mi East 11.5 mph - N/A   Partly Cloudy
3:50 AM 48.2 °F 42.8 °F 82% 29.56 in 6.2 mi East 11.5 mph - N/A   Partly Cloudy
4:00 AM 48 °F 43 °F 75% 29.57 in 22 mi East 13.8 mph - -   Mostly Cloudy
4:20 AM 48.2 °F 44.6 °F 87% 29.56 in 6.2 mi East 11.5 mph - N/A   Partly Cloudy
4:50 AM 50.0 °F 44.6 °F 82% 29.56 in 6.2 mi East 9.2 mph - N/A   Scattered Clouds
5:00 AM 48 °F 44 °F 79% 29.56 in 19 mi East 8.1 mph - -   Partly Cloudy
5:20 AM 48.2 °F 44.6 °F 87% 29.56 in 6.2 mi East 10.4 mph - N/A Rain Light Rain
5:50 AM 50.0 °F 46.4 °F 87% 29.56 in 6.2 mi East 10.4 mph - N/A Rain Light Rain
6:00 AM 49 °F 45 °F 83% 29.57 in 16 mi East 11.5 mph - - Rain Light Rain Showers
6:20 AM 50.0 °F 46.4 °F 87% 29.56 in 6.2 mi East 10.4 mph - N/A   Mostly Cloudy
6:50 AM 50.0 °F 46.4 °F 87% 29.56 in 6.2 mi East 11.5 mph - N/A Rain Light Rain
7:00 AM 49 °F 45 °F 83% 29.57 in 16 mi East 11.5 mph - - Rain Rain
7:20 AM 50.0 °F 46.4 °F 87% 29.56 in 5.6 mi ESE 11.5 mph - N/A Rain Light Rain
7:50 AM 50.0 °F 46.4 °F 87% 29.56 in 6.2 mi East 11.5 mph - N/A Rain Light Rain
8:00 AM 49 °F 47 °F 90% 29.58 in 14 mi East 11.5 mph - - Rain Light Rain
8:20 AM 50.0 °F 48.2 °F 94% 29.56 in 6.2 mi East 11.5 mph - N/A Rain Light Rain
8:50 AM 50.0 °F 48.2 °F 94% 29.56 in 6.2 mi East 11.5 mph - N/A   Scattered Clouds
9:00 AM 50 °F 48 °F 89% 29.59 in 12 mi East 11.5 mph - - Rain Light Rain Showers
9:20 AM 51.8 °F 48.2 °F 88% 29.59 in 6.2 mi ESE 13.8 mph - N/A   Scattered Clouds
9:50 AM 53.6 °F 48.2 °F 82% 29.59 in 6.2 mi ESE 12.7 mph - N/A   Scattered Clouds
10:00 AM 54 °F 48 °F 75% 29.59 in 28 mi ESE 10.4 mph - - Rain Rain
10:20 AM 55.4 °F 48.2 °F 77% 29.59 in 6.2 mi SE 10.4 mph - N/A   Mostly Cloudy
10:50 AM 53.6 °F 46.4 °F 77% 29.59 in 6.2 mi ESE 12.7 mph - N/A   Mostly Cloudy
11:00 AM 54 °F 45 °F 62% 29.60 in 28 mi SE 12.7 mph - -   Partly Cloudy
11:20 AM 55.4 °F 44.6 °F 67% 29.59 in 6.2 mi ESE 12.7 mph - N/A   Scattered Clouds
11:50 AM 55.4 °F 44.6 °F 67% 29.59 in 6.2 mi ESE 11.5 mph - N/A   Scattered Clouds
12:00 PM 56 °F 44 °F 53% 29.61 in 31 mi ESE 15.0 mph - -   Mostly Cloudy
12:20 PM 55.4 °F 44.6 °F 67% 29.62 in 6.2 mi ESE 10.4 mph - N/A   Mostly Cloudy
12:50 PM 55.4 °F 44.6 °F 67% 29.62 in 6.2 mi East 11.5 mph - N/A   Scattered Clouds
1:00 PM 55 °F 44 °F 57% 29.62 in 28 mi East 12.7 mph - -   Scattered Clouds
1:20 PM 55.4 °F 44.6 °F 67% 29.62 in 6.2 mi ESE 12.7 mph - N/A   Mostly Cloudy
1:50 PM 57.2 °F 46.4 °F 67% 29.62 in 6.2 mi East 10.4 mph - N/A   Scattered Clouds
2:00 PM 56 °F 45 °F 56% 29.63 in 25 mi East 11.5 mph - -   Mostly Cloudy
2:20 PM 57.2 °F 44.6 °F 63% 29.62 in 6.2 mi ESE 11.5 mph - N/A   Scattered Clouds
2:50 PM 57.2 °F 44.6 °F 63% 29.62 in 6.2 mi East 9.2 mph - N/A   Scattered Clouds
3:00 PM 58 °F 45 °F 51% 29.63 in 25 mi East 10.4 mph - -   Mostly Cloudy
3:20 PM 59.0 °F 44.6 °F 59% 29.62 in 6.2 mi East 9.2 mph - N/A   Scattered Clouds
3:50 PM 57.2 °F 44.6 °F 63% 29.62 in 6.2 mi East 12.7 mph - N/A   Scattered Clouds
4:00 PM 56 °F 43 °F 50% 29.64 in 25 mi East 11.5 mph - - Rain Light Rain Showers
4:20 PM 57.2 °F 44.6 °F 63% 29.62 in 6.2 mi East 12.7 mph - N/A   Scattered Clouds
4:50 PM 57.2 °F 44.6 °F 63% 29.65 in 6.2 mi East 11.5 mph - N/A   Scattered Clouds
5:00 PM 57 °F 43 °F 50% 29.65 in 28 mi East 10.4 mph - - Rain Rain
5:20 PM 57.2 °F 44.6 °F 63% 29.65 in 6.2 mi East 13.8 mph - N/A   Partly Cloudy
5:50 PM 55.4 °F 44.6 °F 67% 29.65 in 6.2 mi East 13.8 mph - N/A   Partly Cloudy
6:00 PM 56 °F 44 °F 55% 29.66 in 25 mi East 13.8 mph - -   Mostly Cloudy
6:20 PM 55.4 °F 46.4 °F 72% 29.68 in 6.2 mi East 15.0 mph - N/A   Partly Cloudy
6:50 PM 53.6 °F 48.2 °F 82% 29.68 in 6.2 mi East 10.4 mph - N/A   Partly Cloudy
7:00 PM 54 °F 46 °F 66% 29.68 in 16 mi East 11.5 mph - - Rain Light Rain Showers
7:20 PM 53.6 °F 46.4 °F 77% 29.68 in 6.2 mi ENE 6.9 mph - N/A   Partly Cloudy
7:50 PM 53.6 °F 44.6 °F 72% 29.68 in 6.2 mi ENE 8.1 mph - N/A   Partly Cloudy
8:00 PM 55 °F 45 °F 61% 29.70 in 17 mi ENE 8.1 mph - - Rain Rain
8:20 PM 53.6 °F 46.4 °F 77% 29.71 in 6.2 mi ENE 6.9 mph - N/A   Partly Cloudy
8:50 PM 53.6 °F 46.4 °F 77% 29.71 in 6.2 mi ENE 8.1 mph - N/A   Scattered Clouds
9:00 PM 54 °F 46 °F 66% 29.72 in 14 mi ENE 8.1 mph - -   Scattered Clouds
9:20 PM 53.6 °F 48.2 °F 82% 29.71 in 6.2 mi ENE 10.4 mph - N/A   Mostly Cloudy
9:50 PM 53.6 °F 46.4 °F 77% 29.71 in 6.2 mi ENE 11.5 mph - N/A   Scattered Clouds
10:00 PM 53 °F 46 °F 70% 29.73 in 11 mi ENE 11.5 mph - -   Scattered Clouds
10:20 PM 53.6 °F 48.2 °F 82% 29.74 in 6.2 mi ENE 8.1 mph - N/A   Scattered Clouds
10:50 PM 53.6 °F 48.2 °F 82% 29.74 in 6.2 mi ENE 9.2 mph - N/A   Scattered Clouds
11:00 PM 53 °F 46 °F 71% 29.74 in 11 mi NE 8.1 mph - -   Scattered Clouds
11:20 PM 53.6 °F 48.2 °F 82% 29.74 in 6.2 mi ENE 8.1 mph - N/A   Mostly Cloudy
11:50 PM 53.6 °F 46.4 °F 77% 29.74 in 6.2 mi ENE 6.9 mph - N/A   Mostly Cloudy